www.pogodaiklimat.ru

Погода и климат >> Архив погоды >> Индия >> Nagpur


ПОГОДА в Nagpur

  • Прогноз погоды в Nagpur
  • Монитор погоды в Nagpur
  • Климат города

АРХИВ ПОГОДЫ в Nagpur

Время (UTC), дата Ветер
(напр.,м/с)
 
Видим.   Явления Облачность Т
(С)
Тd
(С)
f
(%)
Тe
(С)
Тes
(С)
Комфортность P
(гПа)
Po
(гПа)
Тmin
(С)
Tmax
(С)
R
(мм)
R24
(мм)
S
(см)
12 11.12 В 1 4000 м мгла ясно +23.8 +13.5 52 +26 +26 жарко 1013.1 1013.0 +30.5
15 11.12 СВ 1 2000 м мгла ясно +17.6 +11.8 69 +19 +19 1015.7 1016.0
18 11.12 З 1 2000 м мгла ясно +15.0 +11.7 81 +15 +15 1016.3 1016.0
21 11.12 штиль 0 2000 м мгла ясно +13.6 +12.5 93 +13 +13 1015.0 1015.0
00 12.12 штиль 0 2000 м мгла ясно +12.0 +11.2 95 +11 +11 1015.5 1016.0
03 12.12 С 1 2000 м мгла ясно +18.6 +12.1 66 +20 +23 1017.8 1018.0 +11.5
06 12.12 штиль 0 4000 м мгла ясно +27.2 +14.2 45 +29 +44 жарко 1015.7 1016.0
09 12.12 З 2 4000 м мгла ясно +30.4 +16.0 42 +33 +40 душно 1012.2 1012.0
12 12.12 штиль 0 2000 м мгла ясно +25.2 +16.8 60 +29 +29 душно 1013.0 1013.0 +31.1
15 12.12 штиль 0 2000 м мгла ясно +18.2 +11.2 64 +18 +18 1016.0 1016.0
18 12.12 штиль 0 2000 м мгла 4/0
[Ac trans]
+16.4 +13.6 84 +16 +16 1016.5 1017.0
21 12.12 штиль 0 2000 м 4/0
[Ac trans]
+17.4 +13.9 80 +17 +17 1015.5 1016.0
00 13.12 штиль 0 2000 м мгла 4/0
[Ac trans]
+15.8 +13.7 87 +16 +16 1015.6 1016.0
03 13.12 С 2 2000 м мгла ясно +19.8 +14.7 72 +23 +25 комфорт 1017.3 1017.0 +15.1
06 13.12 ЮВ 2 2000 м мгла ясно +27.2 +17.0 54 +31 +43 душно 1015.9 1016.0
09 13.12 Ю 3 4000 м мгла ясно +30.0 +18.2 49 +35 +41 очень
душно
1013.0 1013.0
12 13.12 ЮЗ 1 4000 м мгла 5/0
[Ac trans]
+25.4 +18.5 66 +30 +30 душно 1013.5 1014.0 +30.9
15 13.12 штиль 0 4000 м мгла 5/0
[Ac trans]
+21.6 +17.4 77 +26 +26 душно 1015.8 1016.0
18 13.12 штиль 0 4000 м мгла 3/0
[Ac trans]
+19.0 +18.3 96 +21 +21 комфорт 1015.7 1016.0
21 13.12 С 2 2000 м мгла 3/0
[Ac trans]
+16.4 +15.0 91 +17 +17 1014.6 1015.0
00 14.12 ЮЗ 1 2000 м мгла 3/0
[Ac trans]
+15.2 +14.8 97 +16 +16 1015.1 1015.0
03 14.12 штиль 0 2000 м мгла 3/0
[Ac trans]
+19.8 +16.8 83 +22 +25 комфорт 1018.1 1018.0 +15.4
06 14.12 В 1 2000 м мгла ясно +27.6 +16.3 50 +31 +44 душно 1017.3 1017.0
09 14.12 Ю 2 4000 м мгла ясно +30.0 +17.0 46 +34 +42 очень
душно
1014.2 1014.0
12 14.12 СВ 1 2000 м мгла 1/0
[Ac trans]
+26.2 +17.6 59 +30 +30 душно 1014.9 1015.0 +30.6
15 14.12 СВ 2 4000 м мгла ясно +19.4 +15.7 79 +22 +22 комфорт 1014.3 1014.0
18 14.12 штиль 0 2000 м мгла ясно +17.0 +14.6 86 +17 +17 1017.0 1017.0
21 14.12 штиль 0 2000 м мгла ясно +15.6 +13.1 85 +15 +15 1016.2 1016.0
00 15.12 С 1 2000 м мгла ясно +15.0 +14.6 97 +15 +15 1016.6 1017.0
03 15.12 С 1 2000 м дымка ясно +20.6 +15.9 74 +25 +28 комфорт 1019.1 1019.0 +14.6
06 15.12 Ю 3 2000 м мгла 4/0
[]
+27.2 +17.4 55 +31 +31 душно 1018.2 1018.0
09 15.12 СВ 3 4000 м мгла ясно +30.0 +16.3 44 +33 +40 душно 1015.0 1016.3
12 15.12 штиль 0 2000 м мгла ясно +25.6 +18.0 63 +30 +30 душно 1016.2 1016.0 +30.9
15 15.12 штиль 0 2000 м мгла ясно +19.4 +15.7 79 +21 +21 комфорт 1019.0 1019.0
18 15.12 штиль 0 2000 м мгла ясно +16.8 +14.7 87 +17 +17 1019.5 1020.0
21 15.12 штиль 0 1000 м мгла ясно +15.6 +14.6 94 +15 +15 1018.2 1018.0
00 16.12 штиль 0 2000 м мгла ясно +14.4 +13.7 96 +14 +14 1018.5 1019.0
03 16.12 С 2 2000 м дымка 4/0
[Ci fib]
+18.6 +15.6 83 +20 +23 1020.8 1021.0 +13.6
06 16.12 В 2 2000 м дымка ясно +27.2 +18.1 58 +32 +43 очень
душно
1019.0 1019.0
09 16.12 СВ 3 4000 м мгла ясно +30.4 +16.8 44 +34 +40 очень
душно
1015.6 1016.0
12 16.12 В 2 2000 м мгла 3/0
[Ci fib]
+25.6 +16.6 58 +29 +29 душно 1016.4 1016.0 +31.0
15 16.12 штиль 0 2000 м мгла ясно +19.2 +14.8 76 +21 +21 комфорт 1019.0 1019.0
18 16.12 С 1 <100 м мгла ясно +17.0 +14.2 84 +18 +18 1020.5 1021.0
21 16.12 СЗ 2 2000 м мгла ясно +16.0 +14.3 90 +16 +16 1019.7 1020.0
00 17.12 З 2 2000 м мгла ясно +15.0 +13.6 91 +15 +15 1020.2 1020.0
03 17.12 штиль 0 2000 м мгла 3/0
[Ci fib]
+17.6 +14.5 82 +18 +21 1022.3 1022.0 +14.0
06 17.12 С 2 2000 м мгла 5/0
[Ci sp]
+25.0 +10.7 41 +26 +36 жарко 1021.0 1021.0
09 17.12 С 2 2000 м мгла 4/0
[Ci fib]
+28.2 +17.5 52 +32 +39 душно 1017.4 1017.0
12 17.12 В 1 2000 м мгла 6/0
[Ac trans Ci sp]
+24.6 +17.2 63 +28 +28 душно 1017.8 1018.0 +29.0
15 17.12 С 1 2000 м мгла 5/0
[Ac trans Ci fib]
+19.8 +16.5 81 +23 +23 комфорт 1020.5 1021.0
18 17.12 С 1 2000 м мгла ясно +18.6 +13.7 73 +20 +20 1020.6 1021.0
21 17.12 С 1 2000 м мгла ясно +15.8 +12.8 82 +16 +16 1020.4 1020.0
00 18.12 штиль 0 2000 м мгла ясно +12.2 +11.1 93 +12 +12 1020.8 1021.0
03 18.12 С 2 2000 м мгла 5/0
[Ac trans Ci fib]
+17.6 +12.2 71 +18 +20 1022.5 1023.0 +11.2
06 18.12 СВ 2 4000 м мгла 8/0
[Ac trans Ci fib]
+25.8 +11.4 41 +27 +34 жарко 1021.3 1021.0

 

Местоположение метеостанции Nagpur (Maharashtra, Индия): широта 21.10 долгота 79.05 высота над уровнем моря 310 м.

В архиве по умолчанию представлена погода в Nagpur за последнюю неделю. Архивные данные за месяц целиком и за предыдущие месяцы, начиная с января 2011 года, Вы можете получить, выбрав интересующий диапазон дат из раскрывающегося списка и нажав кнопку "Ввод!".

Внимание! Время в таблицах - всемирное. Для получения местного времени необходимо прибавить поправку, которая в Nagpur равна 5.5 ч.

Смотрите также архив погоды в соседних городах и на ближайших метеорологических станциях:

Погода в Wardha (Maharashtra, Индия) (68 км)
Погода в Bramhapuri (Maharashtra, Индия) (100 км)
Погода в Chhindwara (Madhya Pradesh, Индия) (111 км)
Погода в Seoni (Madhya Pradesh, Индия) (121 км)
Погода в Yeotmal (Maharashtra, Индия) (122 км)
Погода в Gondia (Maharashtra, Индия) (126 км)
Погода в Chandrapur (Maharashtra, Индия) (128 км)
Погода в Amravati (Maharashtra, Индия) (133 км)
Погода в Betul (Madhya Pradesh, Индия) (144 км)
Погода в Pachmarhi (Madhya Pradesh, Индия) (165 км)

Пояснения к столбцам:

Ветер - указаны скорость ветра в м/с - средняя за 10 мин, порывы в срок и между сроками (в фигурных скобках) и направление, откуда дует ветер: С - северный, СВ - северо-восточный, В - восточный, ЮВ - юго-восточный, Ю - южный, ЮЗ - юго-западный, З - западный, СЗ - северо-западный.
Видимость - горизонтальная дальность видимости в метрах или километрах. При видимости от 1 до 10 км при отсутствии осадков обычно наблюдается дымка, при ухудшении видимости до 1 км и менее - туман. В сухую погоду видимость может ухудшаться дымом, пылью или мглою.
Явления - указаны атмосферные явления, наблюдавшиеся в срок или в последний час перед сроком; фигурными скобками обозначены явления, наблюдавшиеся между сроками (за 1-3 часа до срока); квадратными скобками обозначены град или гололедные отложения с указанием их диаметра в мм.
Облачность - указаны через наклонную черту общая и нижняя облачность в баллах и высота нижней границы облаков в метрах; квадратными скобками обозначены формы облаков: Ci - перистые, Cs - перисто-слоистые, Cc - перисто-кучевые, Ac - высококучевые, As - высокослоистые, Sc - слоисто-кучевые, Ns - слоисто-дождевые, Cu - кучевые, Cb - кучево-дождевые. Подробнее классификацию облаков см. в Атласе облаков (PDF).
T - Температура воздуха - температура, измеренная на высоте 2 м над землей.
Td - Температура точки росы - температура, при понижении до которой содержащийся в воздухе водяной пар достигнет насыщения.
f - Относительная влажность воздуха - влажноcть воздуха, измеренная на высоте 2 м над землей.
Te - Эффективная температура - температура, которую ощущает одетый по сезону человек в тени. Характеристика душности погоды. При расчете учитывается влияние влажности воздуха и скорости ветра на теплоощущения человека.
Tes - Эффективная температура на солнце - температура, которую ощущает человек, с поправкой на солнечный нагрев. Характеристика знойности погоды. Зависит от высоты солнца над горизонтом, облачности и скорости ветра. Ночью, в пасмурную погоду, а также при ветре 12 м/с и более поправка равна нулю.
P - Атмосферное давление - приведенное к уровню моря атмосферное давление.
Po - Атмосферное давление - измеренное на уровне метеостанции атмосферное давление.
Tmin - Минимальная температура - минимум температуры воздуха на высоте 2 м над землей.
Tmax - Максимальная температура - максимум температуры воздуха на высоте 2 м над землей.
R - Количество осадков - Количество выпавших осадков за период времени, мм. При наведении курсора мыши на число - период времени, за который выпало указанное количество осадков.
R24 - Количество осадков - Количество выпавших осадков за 24 часа, мм.
S - Снежный покров - Высота снежного покрова, см. При наведении курсора мыши на число - состояние снежного покрова и степень покрытия местности в баллах.